EW6920 Weather Reports


Display with metric or nautical units.
time (UTC)temp
F
wind
direction
speed
MPH
gust
MPH
rain 1hr
in
rain 24hr
in
rain mn
in
humidity
%
barometer
mb
20260509041549 47 0 0.0 3.0 0.00 0.00 0.00 59 998.0
20260509040049 48 62 0.0 3.0 0.00 0.00 0.00 60 998.2
20260509034543 48 0 0.0 3.0 0.00 0.00 0.00 59 998.5
20260509033111 48 0 0.0 4.0 0.00 0.00 0.00 59 998.7
20260509031548 48 0 0.0 3.0 0.00 0.00 0.00 58 998.9
20260509030047 49 0 0.0 0.0 0.00 0.00 0.00 57 999.0
20260509024558 49 0 0.0 0.0 0.00 0.00 0.00 58 999.2
20260509023045 50 0 0.0 0.0 0.00 0.00 0.00 55 999.3
20260509021543 51 0 0.0 0.0 0.00 0.00 0.00 46 999.4
20260509020048 52 0 0.0 0.0 0.00 0.00 0.00 49 999.4
20260509014545 54 0 0.0 4.0 0.00 0.00 0.00 49 999.4
20260509013049 54 263 2.0 9.0 0.00 0.00 0.00 54 999.4
20260509011556 55 259 2.0 4.0 0.00 0.00 0.00 48 999.5
20260509010047 56 248 4.0 11.0 0.00 0.00 0.00 45 999.6
20260509004555 56 276 4.0 11.0 0.00 0.00 0.00 39 999.6
20260509003046 56 259 7.0 11.0 0.00 0.00 0.00 39 999.5
20260509001544 56 316 7.0 11.0 0.00 0.00 0.00 41 999.7
20260509000046 57 222 5.0 8.0 0.00 0.00 0.00 42 999.6
20260508234546 57 232 5.0 13.0 0.00 0.00 0.00 44 999.9
20260508233044 57 285 7.0 12.0 0.00 0.00 0.00 43 999.8
20260508231552 57 245 8.0 15.0 0.00 0.00 0.00 41 1000.1
20260508230045 57 196 6.0 13.0 0.00 0.00 0.00 39 1000.2
20260508224601 58 196 5.0 11.0 0.00 0.00 0.00 36 1000.3
20260508223047 58 202 6.0 11.0 0.00 0.00 0.00 40 1000.4
20260508221555 58 268 7.0 11.0 0.00 0.00 0.00 43 1000.6
20260508220046 58 234 4.0 8.0 0.00 0.00 0.00 43 1000.8
20260508214547 59 247 5.0 15.0 0.00 0.00 0.00 39 1000.8
20260508213040 58 279 2.0 7.0 0.00 0.00 0.00 35 1000.7
20260508211549 58 272 4.0 13.0 0.00 0.00 0.00 36 1000.8
20260508210046 58 296 7.0 12.0 0.00 0.00 0.00 43 1000.9
20260508204553 59 288 6.0 12.0 0.00 0.00 0.00 36 1001.1
20260508203059 60 236 5.0 13.0 0.00 0.00 0.00 43 1001.4
20260508201543 60 234 1.0 9.0 0.00 0.00 0.00 32 1001.5
20260508200058 60 234 7.0 14.0 0.00 0.00 0.00 37 1001.7
20260508194545 58 259 4.0 13.0 0.00 0.00 0.00 35 1002.1
20260508193055 57 304 2.0 8.0 0.00 0.00 0.00 39 1002.3
20260508191543 58 244 6.0 13.0 0.00 0.00 0.00 39 1002.5
20260508190049 58 301 5.0 17.0 0.00 0.00 0.00 33 1002.6
20260508184545 57 293 7.0 17.0 0.00 0.00 0.00 39 1002.9
20260508183118 57 329 9.0 22.0 0.00 0.00 0.00 37 1003.0
20260508181610 58 287 11.0 21.0 0.00 0.00 0.00 38 1003.1
20260508180044 58 252 9.0 13.0 0.00 0.00 0.00 39 1003.2
20260508174547 57 285 13.0 22.0 0.00 0.00 0.00 35 1003.5
20260508173046 57 324 6.0 16.0 0.00 0.00 0.00 41 1003.6
20260508171551 57 290 6.0 14.0 0.00 0.00 0.00 37 1003.9
20260508170053 55 269 9.0 18.0 0.00 0.00 0.00 40 1004.1
20260508164544 55 324 8.0 21.0 0.00 0.00 0.00 44 1004.2
20260508163049 57 254 8.0 15.0 0.00 0.00 0.00 41 1004.2
20260508161546 55 266 8.0 17.0 0.00 0.00 0.00 37 1004.4
20260508160045 55 268 12.0 18.0 0.00 0.00 0.00 40 1004.6
20260508154545 52 290 6.0 10.0 0.00 0.00 0.00 42 1004.7
20260508153044 51 253 3.0 9.0 0.00 0.00 0.00 43 1005.0
20260508151548 50 207 3.0 8.0 0.00 0.00 0.00 42 1005.2
20260508150103 50 273 5.0 12.0 0.00 0.00 0.00 43 1005.3
20260508144548 51 308 8.0 16.0 0.00 0.00 0.00 45 1005.4
20260508143050 50 260 4.0 9.0 0.00 0.00 0.00 46 1005.5
20260508141549 48 0 1.0 13.0 0.00 0.00 0.00 50 1005.6
20260508140056 46 271 5.0 9.0 0.00 0.00 0.00 62 1005.7
20260508134547 45 264 6.0 10.0 0.00 0.00 0.00 67 1005.9
20260508133046 42 275 5.0 9.0 0.00 0.00 0.00 73 1006.0
20260508131548 39 265 4.0 7.0 0.00 0.00 0.00 82 1006.1
20260508130042 35 298 1.0 4.0 0.00 0.00 0.00 93 1006.2
20260508124545 33 0 0.0 0.0 0.00 0.00 0.00 93 1006.1
20260508123045 30 0 0.0 0.0 0.00 0.00 0.00 93 1006.1
20260508121547 29 0 0.0 0.0 0.00 0.00 0.00 93 1006.1
20260508120044 28 0 0.0 0.0 0.00 0.00 0.00 92 1006.0
20260508114545 28 0 0.0 0.0 0.00 0.00 0.00 92 1005.9
20260508113109 27 0 0.0 0.0 0.00 0.00 0.00 92 1005.7
20260508111544 27 0 0.0 0.0 0.00 0.00 0.00 92 1005.7
20260508110043 27 0 0.0 0.0 0.00 0.00 0.00 91 1005.7
20260508104554 27 0 0.0 0.0 0.00 0.00 0.00 91 1005.7
20260508103046 27 0 0.0 0.0 0.00 0.00 0.00 91 1005.7
20260508101544 27 0 0.0 0.0 0.00 0.00 0.00 91 1005.8
20260508100049 28 0 0.0 0.0 0.00 0.00 0.00 90 1005.9
20260508094549 28 0 0.0 0.0 0.00 0.00 0.00 90 1006.0
20260508093050 28 0 0.0 0.0 0.00 0.00 0.00 90 1005.9
20260508091545 29 0 0.0 0.0 0.00 0.00 0.00 90 1006.0
20260508090045 29 0 0.0 0.0 0.00 0.00 0.00 89 1006.0
20260508084546 29 0 0.0 0.0 0.00 0.00 0.00 89 1006.1
20260508083045 30 0 0.0 0.0 0.00 0.00 0.00 89 1006.3
20260508081543 31 0 0.0 0.0 0.00 0.00 0.00 89 1006.4
20260508080041 31 0 0.0 0.0 0.00 0.00 0.00 89 1006.6
20260508074545 31 0 0.0 0.0 0.00 0.00 0.00 90 1006.7
20260508073044 31 0 0.0 0.0 0.00 0.00 0.00 90 1006.8
20260508071545 31 0 0.0 0.0 0.00 0.00 0.00 90 1006.9
20260508070045 31 0 0.0 0.0 0.00 0.00 0.00 90 1007.1
20260508064602 30 0 0.0 0.0 0.00 0.00 0.00 90 1007.0
20260508063045 30 0 0.0 0.0 0.00 0.00 0.00 89 1007.2
20260508061554 30 0 0.0 0.0 0.00 0.00 0.00 89 1007.2
20260508060048 30 0 0.0 0.0 0.00 0.00 0.00 88 1007.3
20260508054610 30 0 0.0 0.0 0.00 0.00 0.00 88 1007.3
20260508053047 30 0 0.0 0.0 0.00 0.00 0.00 88 1007.5
20260508051546 30 0 0.0 0.0 0.00 0.00 0.00 88 1007.6
20260508050044 30 0 0.0 0.0 0.00 0.00 0.00 88 1007.5
20260508044541 30 0 0.0 0.0 0.00 0.00 0.00 87 1007.5
20260508043050 30 0 0.0 0.0 0.00 0.00 0.00 87 1007.5